Temp
77 76 75 74 73 73 73 73 72 72 73 73 73 73 73 72 61 60 61 62 68 73 75 76 76 76 76 76 76 76 75 74 75
77 76 75 73 73 73 73 74 74 74 73 74 75 75 72 66 62 61 60 60 70 73 75 76 77 77 77 77 77 77 77 77 76
76 76 75 74 73 73 73 73 73 74 74 74 74 73 71 66 62 61 60 64 71 73 75 75 76 77 77 77 76 76 76 77 77
77 75 74 74 74 73 73 73 74 74 74 73 73 72 70 65 62 63 62 66 71 74 75 75 76 77 77 77 76 76 76 76 76
73 73 73 74 74 74 73 73 73 73 73 72 71 70 69 63 61 61 61 70 73 75 76 76 76 76 77 76 76 75 75 75 75
65 68 70 72 73 73 73 73 73 71 69 69 68 67 61 60 60 60 67 72 74 76 75 76 75 75 75 75 76 76 76 75 75
65 65 68 71 71 70 71 70 69 66 61 61 63 60 60 60 60 61 70 72 74 75 75 75 75 75 75 75 75 75 75 75 75
60 59 60 60 63 61 62 61 61 61 61 63 58 59 58 56 58 61 68 72 73 74 74 74 74 74 75 75 74 74 73 73 73
58 58 58 59 59 59 60 64 65 64 63 58 57 56 55 54 56 57 65 69 71 72 73 73 73 73 72 73 72 72 72 72 72
58 58 59 59 64 64 63 63 62 59 55 55 54 53 51 51 52 51 62 65 68 70 70 71 71 70 70 70 70 70 70 70 70
62 60 60 62 62 61 57 53 52 51 51 52 51 50 49 48 50 50 50 62 64 66 68 68 67 67 68 69 68 68 68 68 69
61 61 59 56 54 54 52 51 50 49 50 48 49 49 47 48 48 49 49 50 58 62 64 64 64 64 66 66 66 67 67 67 66
61 58 53 52 51 50 48 47 47 46 45 45 47 46 47 47 47 48 47 48 49 53 59 60 60 61 63 64 65 65 65 64 64
59 56 51 49 47 46 48 45 44 43 45 47 47 45 44 46 49 45 46 47 46 46 54 56 56 58 60 61 62 62 63 62 63
54 51 48 47 46 45 45 45 43 42 41 47 47 43 43 44 43 44 47 45 45 44 45 43 45 55 56 58 58 60 61 61 61
49 47 46 45 44 43 44 43 41 41 40 40 41 41 42 43 43 43 42 43 44 43 44 43 43 44 53 54 56 57 58 59 59
49 46 44 45 44 42 41 41 40 39 39 37 35 35 39 41 46 41 43 40 42 43 47 43 44 42 42 45 54 54 55 57 58
46 45 44 43 42 40 39 39 39 37 38 38 37 33 31 33 38 40 40 41 39 41 42 43 43 43 41 45 45 51 53 55 57
46 45 43 42 41 40 41 41 38 37 35 37 42 37 35 31 30 36 40 37 42 38 38 40 41 41 42 45 48 50 52 54 55
44 44 42 41 40 39 39 38 37 36 35 35 34 33 34 32 29 30 31 38 40 40 38 36 40 41 40 39 42 49 51 53 54
MSLP
1014.40 1014.60 1014.81 1015.01 1015.18 1015.24 1015.31 1015.37 1015.44 1015.57 1015.61 1015.63 1015.52 1015.42 1015.38 1015.48 1015.71 1015.81 1015.82 1015.85 1015.73 1015.34 1015.25 1015.13 1015.02 1015.08 1015.10 1015.15 1015.06 1014.99 1015.05 1015.15 1015.07
1014.42 1014.49 1014.75 1014.95 1015.10 1015.19 1015.30 1015.35 1015.41 1015.45 1015.52 1015.54 1015.43 1015.28 1015.34 1015.50 1015.59 1015.70 1015.65 1015.68 1015.36 1015.13 1014.97 1014.86 1014.67 1014.63 1014.63 1014.68 1014.74 1014.77 1014.75 1014.72 1014.75
1014.13 1014.47 1014.80 1014.96 1015.08 1015.23 1015.29 1015.31 1015.31 1015.39 1015.32 1015.47 1015.47 1015.40 1015.39 1015.45 1015.48 1015.53 1015.58 1015.47 1015.21 1014.95 1014.73 1014.61 1014.47 1014.37 1014.37 1014.46 1014.55 1014.50 1014.50 1014.42 1014.39
1013.83 1014.40 1014.81 1015.04 1015.09 1015.20 1015.23 1015.30 1015.23 1015.23 1015.18 1015.23 1015.33 1015.27 1015.26 1015.31 1015.36 1015.34 1015.37 1015.27 1015.04 1014.71 1014.45 1014.28 1014.18 1014.07 1013.95 1013.99 1014.11 1014.20 1014.22 1014.24 1014.11
1014.51 1014.64 1014.84 1015.07 1015.08 1015.20 1015.18 1015.22 1015.16 1015.14 1015.08 1015.16 1015.24 1015.28 1015.23 1015.29 1015.26 1015.26 1015.25 1014.99 1014.63 1014.26 1014.02 1013.88 1013.76 1013.66 1013.51 1013.51 1013.58 1013.68 1013.76 1013.72 1013.71
1014.75 1014.86 1014.97 1015.10 1015.07 1015.13 1015.20 1015.14 1015.10 1015.14 1015.11 1015.16 1015.22 1015.24 1015.31 1015.21 1015.17 1015.15 1014.92 1014.59 1014.25 1013.88 1013.65 1013.63 1013.55 1013.46 1013.38 1013.22 1013.16 1013.21 1013.21 1013.22 1013.19
1015.00 1015.00 1015.05 1015.12 1015.14 1015.20 1015.33 1015.26 1015.28 1015.30 1015.33 1015.29 1015.29 1015.41 1015.40 1015.39 1015.35 1015.15 1014.75 1014.41 1014.10 1013.89 1013.77 1013.64 1013.47 1013.31 1013.07 1012.85 1012.76 1012.75 1012.71 1012.68 1012.62
1015.06 1015.17 1015.16 1015.31 1015.33 1015.50 1015.43 1015.42 1015.41 1015.55 1015.54 1015.51 1015.64 1015.55 1015.59 1015.67 1015.55 1015.31 1014.85 1014.43 1014.13 1013.93 1013.76 1013.63 1013.51 1013.35 1013.05 1012.76 1012.64 1012.62 1012.45 1012.44 1012.42
1015.17 1015.32 1015.25 1015.37 1015.49 1015.51 1015.47 1015.41 1015.46 1015.69 1015.90 1016.03 1015.93 1015.84 1015.79 1015.84 1015.74 1015.54 1015.11 1014.71 1014.46 1014.22 1013.97 1013.85 1013.62 1013.43 1013.31 1013.17 1013.05 1012.87 1012.71 1012.63 1012.53
1015.19 1015.32 1015.39 1015.54 1015.48 1015.56 1015.61 1015.84 1015.90 1016.17 1016.26 1016.21 1016.22 1016.18 1016.14 1016.05 1015.96 1015.82 1015.40 1015.15 1014.83 1014.46 1014.37 1014.09 1014.06 1013.92 1013.76 1013.56 1013.36 1013.20 1012.97 1012.95 1012.84
1015.15 1015.51 1015.74 1015.84 1015.90 1016.16 1016.20 1016.51 1016.55 1016.83 1016.61 1016.48 1016.46 1016.43 1016.37 1016.29 1016.15 1016.05 1015.89 1015.50 1015.35 1015.03 1014.77 1014.71 1014.65 1014.49 1014.18 1013.86 1013.68 1013.52 1013.34 1013.17 1012.94
1015.38 1015.85 1016.26 1016.60 1016.61 1016.56 1016.61 1016.76 1016.88 1016.97 1016.81 1016.61 1016.53 1016.44 1016.49 1016.45 1016.40 1016.26 1016.14 1016.05 1015.83 1015.49 1015.33 1015.25 1015.10 1014.90 1014.53 1014.21 1013.96 1013.65 1013.44 1013.19 1012.98
1015.36 1015.98 1016.66 1016.93 1016.93 1016.87 1016.99 1017.13 1017.20 1017.29 1017.16 1016.85 1016.50 1016.54 1016.52 1016.50 1016.46 1016.37 1016.32 1016.30 1016.31 1016.13 1015.83 1015.71 1015.54 1015.25 1014.88 1014.50 1014.08 1013.75 1013.43 1013.25 1013.05
1015.21 1016.16 1016.92 1017.18 1017.21 1017.30 1017.38 1017.52 1017.58 1017.73 1017.37 1016.96 1016.55 1016.56 1016.57 1016.64 1016.49 1016.49 1016.45 1016.47 1016.51 1016.45 1016.22 1016.09 1015.88 1015.53 1015.13 1014.66 1014.27 1013.97 1013.55 1013.32 1013.01
1015.60 1016.54 1017.11 1017.32 1017.53 1017.63 1017.65 1017.82 1017.95 1018.17 1018.06 1017.37 1016.83 1016.60 1016.60 1016.74 1016.73 1016.67 1016.53 1016.59 1016.58 1016.57 1016.46 1016.34 1016.14 1015.71 1015.28 1014.81 1014.51 1014.04 1013.53 1013.18 1012.80
1016.19 1016.98 1017.38 1017.66 1017.84 1018.05 1018.01 1018.14 1018.42 1018.52 1018.19 1017.92 1017.34 1016.86 1016.72 1016.69 1016.68 1016.64 1016.77 1016.75 1016.66 1016.50 1016.43 1016.26 1016.06 1015.74 1015.34 1014.99 1014.57 1014.00 1013.55 1013.09 1012.64
1016.61 1017.21 1017.67 1017.82 1018.02 1018.32 1018.45 1018.56 1018.85 1019.08 1019.00 1019.23 1019.02 1018.61 1017.55 1016.92 1016.55 1016.71 1016.80 1016.66 1016.52 1016.45 1016.28 1016.29 1015.96 1015.63 1015.32 1014.97 1014.36 1013.99 1013.54 1012.97 1012.39
1016.92 1017.42 1017.73 1018.14 1018.39 1018.66 1018.87 1019.10 1019.34 1019.70 1019.61 1019.57 1019.76 1019.63 1019.71 1018.95 1017.33 1016.89 1016.95 1016.89 1016.81 1016.81 1016.63 1016.28 1015.87 1015.47 1015.12 1014.70 1014.33 1013.86 1013.29 1012.74 1012.17
1017.23 1017.63 1017.99 1018.32 1018.51 1018.79 1019.19 1019.48 1019.74 1019.91 1020.34 1019.99 1019.96 1020.16 1020.34 1020.08 1018.73 1017.71 1017.19 1017.22 1017.13 1016.89 1016.48 1016.14 1015.73 1015.36 1014.94 1014.50 1014.02 1013.50 1012.93 1012.31 1011.70
1017.70 1017.97 1018.23 1018.53 1018.82 1019.18 1019.43 1019.71 1019.95 1020.11 1020.44 1020.60 1020.60 1020.47 1020.26 1020.30 1020.40 1018.64 1017.61 1017.18 1016.98 1016.65 1016.30 1016.04 1015.54 1014.96 1014.60 1014.29 1013.79 1013.09 1012.47 1011.94 1011.30
Wind_Speed
9 7 6 5 4 3 3 2 1 1 2 3 4 3 3 2 2 2 4 3 8 8 8 9 4 9 10 9 9 10 8 11 12
9 9 8 6 5 3 2 1 2 3 4 6 7 4 4 3 3 4 4 5 9 9 9 9 10 10 10 9 10 11 13 13 13
12 10 8 6 4 3 2 3 4 5 5 7 8 7 6 4 4 5 5 8 11 10 10 10 12 12 11 11 12 13 14 14 15
6 11 8 6 4 3 4 5 6 6 6 7 8 7 8 5 3 4 4 9 13 12 11 11 11 12 12 12 13 13 15 15 16
5 6 5 6 4 4 6 7 7 7 7 8 8 8 8 5 4 4 4 13 15 15 13 14 14 14 14 13 15 15 15 16 16
3 2 4 5 4 6 7 7 7 7 6 7 8 8 3 4 3 3 8 9 11 13 12 11 12 14 16 16 15 15 16 17 18
2 3 5 5 6 6 7 7 7 6 4 3 6 3 5 4 4 3 10 9 10 11 11 11 11 12 13 11 12 16 18 19 19
1 1 2 2 3 2 3 4 3 5 4 4 4 5 4 3 3 5 11 11 10 9 10 10 10 11 12 13 12 12 12 12 15
1 1 1 1 1 1 1 2 5 5 6 5 5 5 4 3 3 5 11 10 11 11 10 10 10 13 14 14 14 13 13 14 14
2 2 3 2 3 3 4 4 4 5 5 5 5 5 5 5 3 3 10 12 11 12 12 12 13 13 14 14 14 14 14 14 14
3 4 4 4 4 4 4 4 4 4 4 5 5 4 5 4 4 4 5 12 13 12 13 13 14 14 14 14 14 14 13 13 13
6 4 4 3 4 5 4 4 4 4 4 5 4 3 4 3 5 4 4 5 12 13 13 14 15 16 16 16 16 15 15 14 14
7 5 4 4 4 4 4 4 3 4 4 4 4 3 3 3 4 4 4 4 4 8 14 16 17 17 17 17 17 16 16 15 15
9 6 4 4 4 4 3 4 3 4 6 6 5 3 2 2 3 4 5 6 5 3 10 15 14 16 17 16 15 17 16 16 17
9 6 5 4 4 4 4 5 5 4 4 4 5 4 2 2 3 3 3 4 5 4 5 4 5 16 17 15 17 20 18 17 17
8 5 5 5 5 5 5 2 5 5 5 4 5 3 3 2 1 2 1 3 3 3 4 3 4 5 16 13 21 19 19 18 19
7 6 5 5 5 6 6 6 3 3 5 3 0 5 6 4 4 1 2 4 5 6 11 8 8 6 4 8 21 19 19 21 21
7 7 6 6 4 5 5 5 6 3 3 6 3 4 3 4 4 4 3 6 5 6 6 8 6 6 5 10 12 17 21 21 23
7 7 6 6 4 6 4 4 3 3 3 3 3 1 2 3 6 3 6 3 8 6 6 7 7 7 7 11 16 20 22 23 25
7 6 6 6 5 5 6 5 5 2 2 1 2 2 2 0 3 8 6 9 8 7 5 5 7 7 6 5 9 20 23 25 26
Wind_Direction
182 174 155 136 125 112 109 119 117 252 300 296 291 288 297 299 286 278 288 308 291 289 288 283 248 255 252 257 272 271 272 241 247
214 187 172 170 166 161 184 207 301 292 299 305 311 333 281 288 275 281 280 279 285 280 269 273 266 266 257 268 261 261 275 263 262
230 184 180 186 192 209 242 300 314 309 303 299 302 311 313 305 289 280 278 280 288 282 272 265 276 273 255 259 271 276 273 271 272
182 169 184 202 220 259 294 308 320 317 312 308 308 311 306 299 281 284 274 286 288 283 274 266 265 270 268 253 253 257 267 271 274
17 160 192 225 247 288 313 314 316 313 315 316 319 318 319 310 313 297 295 303 297 292 284 276 268 262 262 248 247 250 253 259 263
329 323 231 255 284 299 313 320 322 332 338 336 334 335 322 311 301 298 316 323 318 314 323 329 304 293 285 278 265 254 256 259 259
282 298 307 296 316 333 335 346 352 2 354 0 20 18 16 18 3 359 4 352 344 345 342 341 342 335 324 317 292 272 266 267 268
343 334 332 340 1 346 344 358 22 27 36 37 29 36 34 20 10 1 12 10 11 4 7 6 8 359 360 353 343 351 333 313 306
61 54 32 50 360 338 24 63 61 47 38 31 27 26 24 11 359 5 15 25 19 12 14 13 10 24 20 16 15 14 19 19 19
109 89 75 71 76 55 61 46 47 35 25 25 19 19 17 4 9 10 24 34 28 32 26 25 25 22 19 12 9 9 11 6 359
96 77 65 50 53 41 56 59 56 36 21 13 7 22 9 10 44 27 21 43 38 30 35 32 26 12 5 4 3 356 352 347 344
111 90 65 53 52 66 54 47 44 35 5 7 357 29 11 54 38 41 37 37 34 35 34 26 18 8 359 354 348 343 341 338 338
109 98 77 60 54 56 59 32 40 24 12 337 340 10 7 106 48 55 44 45 30 24 35 22 9 1 354 347 342 342 339 338 334
105 95 81 71 61 48 44 46 50 23 359 337 328 350 353 121 54 59 57 44 34 28 23 11 4 357 346 339 338 334 327 322 316
91 87 79 71 67 44 45 57 33 48 335 320 315 334 353 130 55 51 38 34 24 16 14 348 336 343 340 334 335 324 320 313 311
93 91 87 74 75 65 42 61 46 16 350 4 336 337 2 290 328 25 19 25 344 18 349 338 318 316 332 327 327 325 315 311 308
97 100 91 81 81 60 52 44 38 23 21 20 339 358 334 351 308 328 10 7 7 2 348 326 317 309 305 305 323 317 314 309 307
95 93 92 81 83 79 65 53 51 29 1 37 73 355 307 328 323 339 349 345 2 329 313 302 293 295 294 309 307 307 308 305 305
90 90 88 90 82 73 72 65 65 77 36 352 34 72 204 319 320 314 314 353 321 296 292 296 292 290 288 291 302 307 302 302 305
84 87 85 77 74 76 73 63 60 65 90 76 341 332 305 264 247 301 313 307 308 296 290 283 285 279 279 278 283 296 303 303 302